User: anonymous   Login
Location: Nairn
(57.5833°N, 3.8667°W)
Time: 16:26:07
(UTC+00:00)
Language:

Cosmos 2026 Rocket - Orbit

View from above orbital plane
View from above orbital plane
View from above satellite
View from above satellite

Ground track
Ground track

The orbit data is extracted from the following two-line orbital elements,

1 20046U 89042B   20292.93904281 +.00000134 +00000-0 +11712-3 0  9999
2 20046 082.9334 114.1295 0040840 247.5666 112.1164 13.78201812577051
Epoch (UTC): 18 October 2020 22:32:13
Eccentricity: 0.0040840
inclination: 82.9334°
perigee height: 940 km
apogee height: 1000 km
right ascension of ascending node: 114.1295°
argument of perigee: 247.5666°
revolutions per day: 13.78201812
mean anomaly at epoch: 112.1164°
orbit number at epoch: 57705

The dashed part of the orbit path shows where the satellite is in the earth's shadow,  

DLR